Cut Bank, MT

12:06 AM MDT on October 23, 2019 (GMT -0600)
Cut Bank Municipal

Weather History for KCTB - August, 2019

Change the Weather History Date:

Tuesday, August 6, 2019

  Actual Average Record
Temperature  
Mean Temperature 69 °F 66 °F  
Max Temperature 87 °F 82 °F 103 °F (1983)
Min Temperature 51 °F 50 °F 35 °F (1909)
Degree Days  
Heating Degree Days 0 2  
Month to date heating degree days 0 12  
Since 1 June heating degree days 315 331  
Since 1 July heating degree days 93 98  
Cooling Degree Days 4 3  
Month to date cooling degree days 31 18  
Year to date cooling degree days 84 107  
Since 1 June cooling degree days 84 105  
Growing Degree Days 19 (Base 50)    
Moisture  
Dew Point 44 °F    
Average Humidity 45    
Maximum Humidity 80    
Minimum Humidity 20    
Precipitation  
Precipitation 0.00 in 0.04 in 0.74 in (1987)
Month to date precipitation 0.01 0.22  
Year to date precipitation 7.42 7.69  
Snow  
Snow - - - ()
Snow Depth 0.00 in    
Sea Level Pressure  
Sea Level Pressure 29.96 in    
Wind  
Wind Speed 8 mph ()    
Max Wind Speed 30 mph    
Max Gust Speed 36 mph    
Visibility 10.0 miles    
Events      
T = Trace of Precipitation, MM = Missing Value Source: Averaged Metar Reports

Daily Weather History Graph

Daily Weather History Graph

Search for Another Location

Airport or City:

Astronomy

Aug. 06, 2019 Rise Set
Actual Time 6:10 AM MDT 8:59 PM MDT
Civil Twilight 5:34 AM MDT 9:35 PM MDT
Nautical Twilight 4:47 AM MDT 10:21 PM MDT
Astronomical Twilight 3:51 AM MDT 11:17 PM MDT
Moon 1:11 PM MDT (8/6) No Moon Set
Length of Visible Light 16h 01m
Length of Day
14h 49m
Waxing Crescent, 39% of the Moon is Illuminated
Aug 6
Waxing Crescent
Aug 7
First Quarter
Aug 15
Full
Aug 23
Last Quarter
Aug 30
New

Hourly Weather History & Observations

Time (MDT) Temp. Dew Point Humidity Pressure Visibility Wind Dir Wind Speed Gust Speed Precip Events Conditions
12:56 AM 57.0 °F 36.0 °F 45% 29.95 in 10.0 mi NW 8.1 mph - N/A   Clear
1:56 AM 57.9 °F 37.0 °F 46% 29.96 in 10.0 mi NW 5.8 mph - N/A   Clear
2:56 AM 51.1 °F 37.0 °F 59% 29.96 in 10.0 mi SW 4.6 mph - N/A   Clear
3:56 AM 55.0 °F 42.1 °F 62% 29.96 in 10.0 mi WNW 9.2 mph - N/A   Clear
4:56 AM 55.9 °F 42.1 °F 60% 29.97 in 10.0 mi NW 9.2 mph - N/A   Clear
5:56 AM 55.0 °F 43.0 °F 64% 29.99 in 10.0 mi NW 8.1 mph - N/A   Clear
6:56 AM 54.0 °F 44.1 °F 69% 30.01 in 10.0 mi NNW 10.4 mph - N/A   Clear
7:56 AM 61.0 °F 46.0 °F 58% 30.02 in 10.0 mi NNW 11.5 mph - N/A   Clear
8:56 AM 66.0 °F 46.9 °F 50% 30.03 in 10.0 mi NNW 10.4 mph - N/A   Clear
9:56 AM 70.0 °F 48.0 °F 46% 30.03 in 10.0 mi North 10.4 mph - N/A   Clear
10:56 AM 73.0 °F 48.0 °F 41% 30.01 in 10.0 mi Variable 4.6 mph - N/A   Clear
11:56 AM 75.9 °F 46.0 °F 35% 30.00 in 10.0 mi WNW 8.1 mph - N/A   Clear
12:56 PM 77.0 °F 45.0 °F 32% 29.99 in 10.0 mi WNW 6.9 mph - N/A   Clear
1:56 PM 81.0 °F 44.1 °F 27% 29.95 in 10.0 mi North - - N/A   Clear
2:56 PM 84.0 °F 43.0 °F 24% 29.94 in 10.0 mi WNW 9.2 mph - N/A   Clear
3:56 PM 84.9 °F 42.1 °F 22% 29.91 in 10.0 mi NNW 6.9 mph - N/A   Clear
4:56 PM 84.0 °F 39.9 °F 21% 29.88 in 10.0 mi Variable 3.5 mph - N/A   Clear
5:56 PM 84.9 °F 39.9 °F 20% 29.87 in 10.0 mi SSW 5.8 mph - N/A   Partly Cloudy
6:56 PM 84.9 °F 43.0 °F 23% 29.87 in 10.0 mi ENE 10.4 mph - N/A   Mostly Cloudy
7:56 PM 78.1 °F 43.0 °F 29% 29.88 in 10.0 mi NE 13.8 mph - N/A   Clear
8:56 PM 73.0 °F 45.0 °F 37% 29.91 in 10.0 mi NNE 17.3 mph - N/A   Scattered Clouds
9:56 PM 63.0 °F 50.0 °F 63% 29.98 in 10.0 mi NNE 21.9 mph 33.4 mph N/A   Clear
10:56 PM 61.0 °F 51.1 °F 70% 30.03 in 10.0 mi North 15.0 mph - N/A   Clear
11:56 PM 57.9 °F 51.1 °F 78% 30.05 in 10.0 mi NNW 12.7 mph - N/A   Clear